Weather History for CWEU - January, 2013

Change the Weather History Date:

Saturday, January 12, 2013

  Actual Average Record
Temperature  
Mean Temperature -30 °F -  
Max Temperature -24 °F -29 °F 0 °F (2003)
Min Temperature -37 °F -42 °F -45 °F (2009)
Degree Days  
Heating Degree Days 96    
Moisture  
Dew Point -40 °F    
Average Humidity 62    
Maximum Humidity 69    
Minimum Humidity 43    
Precipitation  
Precipitation 0.00 in 0.00 in - ()
Sea Level Pressure  
Sea Level Pressure 30.25 in    
Wind  
Wind Speed 1 mph ()    
Max Wind Speed 5 mph    
Max Gust Speed -    
Visibility 15.0 miles    
Events Snow    
Averages and records for this station are not official NWS values.
T = Trace of Precipitation, MM = Missing Value Source: Averaged Metar Reports

Daily Weather History Graph

Daily Weather History Graph

Search for Another Location

Airport or City:

Trip Planner

Search our weather history database for the weather conditions in past years. The results will help you decide how hot, cold, wet, or windy it might be!

Date:

Astronomy

Dec. 31, 1969 Rise Set
Actual Time Sun does not rise Sun does not rise
Civil Twilight Sun does not rise Sun does not rise
Nautical Twilight 10:38 AM CST 1:07 PM CST
Astronomical Twilight 7:08 AM CST 4:37 PM CST
Moon No Moon Rise No Moon Set
Length of Visible Light 0h 00m
Length of Day
0h 00m
New Moon, 1% of the Moon is Illuminated
Jan 12
New Moon
Jan 18
First Quarter
Jan 26
Full
Feb 3
Last Quarter
Feb 10
New

Hourly Weather History & Observations

Time (CST) Temp. Windchill Dew Point Humidity Pressure Visibility Wind Dir Wind Speed Gust Speed Precip Events Conditions
12:00 AM -35 °F - -41 °F 55% 30.11 in 15 mi ENE 2.3 mph - - Snow Snow
12:00 AM -34.6 °F - -41.8 °F 68% 30.11 in 15.0 mi ENE 2.3 mph - N/A   Clear
2:00 AM -36.4 °F - -43.6 °F 67% 30.14 in 15.0 mi Calm Calm - N/A   Clear
4:00 AM -31.0 °F -43.3 °F -38.2 °F 68% 30.16 in 15.0 mi SE 3.5 mph - N/A   Mostly Cloudy
5:00 AM -32.8 °F - -41.8 °F 62% 30.17 in 15.0 mi Calm Calm - N/A   Mostly Cloudy
6:00 AM -32 °F - -40 °F 45% 30.17 in 15 mi Calm Calm - - Snow Snow
6:00 AM -32.8 °F - -40.0 °F 68% 30.17 in 15.0 mi Calm Calm - N/A   Scattered Clouds
7:00 AM -32.8 °F - -41.8 °F 62% 30.19 in 15.0 mi South 2.3 mph - N/A   Clear
8:00 AM -34.6 °F - -43.6 °F 61% 30.19 in 15.0 mi Calm Calm - N/A   Clear
9:00 AM -32.8 °F - -40.0 °F 68% 30.20 in 15.0 mi Calm Calm - N/A   Clear
10:00 AM -34.6 °F - -43.6 °F 61% 30.21 in 15.0 mi Calm Calm - N/A   Clear
12:00 PM -33 °F - -42 °F 43% 30.25 in 15 mi SSE 3.5 mph - - Snow Snow
12:00 PM -32.8 °F -45.3 °F -41.8 °F 62% 30.25 in 15.0 mi SSE 3.5 mph - N/A   Scattered Clouds
1:00 PM -31.0 °F - -38.2 °F 68% 30.27 in 15.0 mi ENE 2.3 mph - N/A   Clear
2:00 PM -29.2 °F - -38.2 °F 62% 30.28 in 15.0 mi Calm Calm - N/A   Clear
3:00 PM -29.2 °F - -38.2 °F 62% 30.29 in 15.0 mi Calm Calm - N/A   Mostly Cloudy
4:00 PM -29.2 °F -44.0 °F -36.4 °F 68% 30.31 in 15.0 mi SE 4.6 mph - N/A   Mostly Cloudy
5:00 PM -27.4 °F - -34.6 °F 69% 30.33 in 15.0 mi Calm Calm - N/A   Scattered Clouds
6:00 PM -27 °F - -35 °F 48% 30.35 in 15 mi Calm Calm - - Snow Snow
6:00 PM -27.4 °F - -36.4 °F 62% 30.35 in 15.0 mi Calm Calm - N/A   Clear
7:00 PM -31.0 °F - -38.2 °F 68% 30.36 in 15.0 mi Calm Calm - N/A   Clear
8:00 PM -29.2 °F - -36.4 °F 68% 30.39 in 15.0 mi ESE 2.3 mph - N/A   Clear
9:00 PM -32.8 °F - -40.0 °F 68% 30.42 in 15.0 mi ENE 2.3 mph - N/A   Clear